TimeCDT,TemperatureF,Dew PointF,Humidity,Sea Level PressureIn,VisibilityMPH,Wind Direction,Wind SpeedMPH,Gust SpeedMPH,PrecipitationIn,Events,Conditions,WindDirDegrees,DateUTC
12:13 AM,51.1,43.7,76,29.81,10.0,NW,8.1,-,N/A,,Clear,320,2013-04-29 05:13:00
12:33 AM,50.4,43.3,77,29.82,10.0,NW,8.1,-,N/A,,Clear,320,2013-04-29 05:33:00
12:53 AM,49.1,41.9,76,29.82,10.0,NW,5.8,-,N/A,,Clear,320,2013-04-29 05:53:00
1:13 AM,48.0,41.0,77,29.83,10.0,Calm,Calm,-,N/A,,Clear,0,2013-04-29 06:13:00
1:33 AM,46.4,40.1,79,29.83,10.0,Calm,Calm,-,N/A,,Clear,0,2013-04-29 06:33:00
1:53 AM,45.5,39.6,80,29.84,10.0,Calm,Calm,-,N/A,,Clear,0,2013-04-29 06:53:00
2:13 AM,44.6,38.5,79,29.84,10.0,NW,3.5,-,N/A,,Clear,310,2013-04-29 07:13:00
2:33 AM,43.3,37.6,80,29.84,10.0,WNW,3.5,-,N/A,,Clear,300,2013-04-29 07:33:00
2:53 AM,41.9,36.9,82,29.84,10.0,WNW,3.5,-,N/A,,Clear,300,2013-04-29 07:53:00
3:13 AM,41.9,36.5,81,29.84,10.0,WNW,3.5,-,N/A,,Clear,300,2013-04-29 08:13:00
3:33 AM,41.0,35.2,80,29.85,10.0,Calm,Calm,-,N/A,,Clear,0,2013-04-29 08:33:00
3:53 AM,38.7,34.7,86,29.85,10.0,WNW,3.5,-,N/A,,Clear,300,2013-04-29 08:53:00
4:13 AM,40.1,34.0,79,29.86,10.0,NW,3.5,-,N/A,,Clear,310,2013-04-29 09:13:00
4:33 AM,38.7,33.4,81,29.86,10.0,NW,3.5,-,N/A,,Clear,310,2013-04-29 09:33:00
4:53 AM,39.2,32.9,78,29.86,10.0,NNW,4.6,-,N/A,,Clear,330,2013-04-29 09:53:00
5:13 AM,40.3,32.0,72,29.86,10.0,NNW,8.1,-,N/A,,Clear,340,2013-04-29 10:13:00
5:33 AM,40.1,32.0,73,29.86,10.0,North,6.9,-,N/A,,Clear,350,2013-04-29 10:33:00
5:53 AM,39.7,32.0,74,29.86,10.0,North,5.8,-,N/A,,Clear,10,2013-04-29 10:53:00
6:13 AM,39.6,32.0,74,29.86,10.0,North,6.9,-,N/A,,Clear,360,2013-04-29 11:13:00
6:33 AM,38.7,32.2,78,29.85,10.0,North,4.6,-,N/A,,Clear,360,2013-04-29 11:33:00
6:53 AM,39.6,32.2,75,29.86,10.0,NNE,3.5,-,N/A,,Clear,30,2013-04-29 11:53:00
7:13 AM,39.6,32.2,75,29.86,10.0,NNE,4.6,-,N/A,,Clear,20,2013-04-29 12:13:00
7:33 AM,40.8,33.1,74,29.86,10.0,NNE,5.8,-,N/A,,Clear,20,2013-04-29 12:33:00
7:53 AM,41.9,32.9,70,29.85,10.0,NNE,5.8,-,N/A,,Clear,20,2013-04-29 12:53:00
8:13 AM,43.9,33.6,67,29.84,10.0,NNE,6.9,-,N/A,,Clear,20,2013-04-29 13:13:00
8:33 AM,46.0,33.4,61,29.84,10.0,NE,6.9,-,N/A,,Clear,40,2013-04-29 13:33:00
8:53 AM,47.3,33.1,58,29.83,10.0,NE,5.8,-,N/A,,Clear,50,2013-04-29 13:53:00
9:13 AM,48.7,33.3,55,29.82,10.0,NE,4.6,-,N/A,,Clear,50,2013-04-29 14:13:00
9:33 AM,51.1,32.7,50,29.81,10.0,NE,5.8,-,N/A,,Clear,40,2013-04-29 14:33:00
9:53 AM,52.9,32.0,45,29.80,10.0,NNE,6.9,-,N/A,,Clear,30,2013-04-29 14:53:00
10:13 AM,54.7,30.7,40,29.79,10.0,NE,5.8,-,N/A,,Clear,40,2013-04-29 15:13:00
10:33 AM,55.4,31.3,40,29.79,10.0,NE,8.1,-,N/A,,Clear,50,2013-04-29 15:33:00
10:53 AM,56.7,27.5,33,29.79,10.0,ENE,4.6,-,N/A,,Clear,70,2013-04-29 15:53:00
11:13 AM,58.1,27.9,32,29.78,10.0,Calm,Calm,-,N/A,,Clear,0,2013-04-29 16:13:00
11:33 AM,59.0,28.2,31,29.77,10.0,NE,3.5,-,N/A,,Clear,50,2013-04-29 16:33:00
11:53 AM,59.9,26.8,28,29.77,10.0,SE,6.9,-,N/A,,Clear,130,2013-04-29 16:53:00
12:13 PM,61.3,21.9,22,29.76,10.0,Calm,Calm,-,N/A,,Clear,0,2013-04-29 17:13:00
12:33 PM,62.1,26.6,26,29.75,10.0,South,3.5,-,N/A,,Clear,190,2013-04-29 17:33:00
12:53 PM,62.8,27.3,26,29.75,10.0,SSE,4.6,-,N/A,,Clear,160,2013-04-29 17:53:00
1:13 PM,64.2,27.5,25,29.73,10.0,SSE,5.8,-,N/A,,Clear,150,2013-04-29 18:13:00
1:33 PM,65.1,27.5,24,29.72,10.0,SSE,6.9,-,N/A,,Clear,160,2013-04-29 18:33:00
1:53 PM,66.4,28.0,24,29.71,10.0,SE,8.1,-,N/A,,Clear,130,2013-04-29 18:53:00
2:12 PM,67.5,26.4,21,29.70,10.0,ESE,6.9,-,N/A,,Clear,120,2013-04-29 19:12:00
2:33 PM,68.2,28.6,23,29.69,10.0,SE,3.5,-,N/A,,Clear,140,2013-04-29 19:33:00
2:53 PM,68.9,27.5,21,29.68,10.0,South,5.8,-,N/A,,Clear,190,2013-04-29 19:53:00
3:12 PM,69.6,26.4,20,29.67,10.0,SSE,5.8,-,N/A,,Clear,150,2013-04-29 20:12:00
3:33 PM,70.2,27.5,20,29.65,10.0,South,5.8,-,N/A,,Clear,170,2013-04-29 20:33:00
3:53 PM,70.2,26.8,20,29.65,10.0,SSE,6.9,-,N/A,,Clear,150,2013-04-29 20:53:00
4:13 PM,70.5,27.5,20,29.64,10.0,ESE,10.4,-,N/A,,Clear,110,2013-04-29 21:13:00
4:33 PM,70.9,27.1,20,29.63,10.0,SE,11.5,17.3,N/A,,Clear,140,2013-04-29 21:33:00
4:53 PM,70.9,29.8,22,29.63,10.0,SE,9.2,-,N/A,,Clear,140,2013-04-29 21:53:00
5:13 PM,70.3,30.2,23,29.62,10.0,SE,9.2,-,N/A,,Clear,130,2013-04-29 22:13:00
5:33 PM,70.5,31.8,24,29.61,10.0,SE,9.2,-,N/A,,Clear,140,2013-04-29 22:33:00
5:53 PM,71.2,33.1,25,29.61,10.0,SE,9.2,-,N/A,,Clear,140,2013-04-29 22:53:00
6:13 PM,70.9,33.8,26,29.61,10.0,SE,8.1,-,N/A,,Clear,130,2013-04-29 23:13:00
6:33 PM,69.3,34.7,28,29.60,10.0,SE,8.1,-,N/A,,Clear,140,2013-04-29 23:33:00
6:53 PM,68.9,37.0,31,29.59,10.0,SE,8.1,-,N/A,,Clear,130,2013-04-29 23:53:00
7:13 PM,68.5,38.7,34,29.59,10.0,ESE,5.8,-,N/A,,Clear,120,2013-04-30 00:13:00
7:32 PM,68.0,40.5,37,29.58,10.0,ESE,6.9,-,N/A,,Clear,120,2013-04-30 00:32:00
7:53 PM,66.6,41.9,41,29.58,10.0,ESE,4.6,-,N/A,,Clear,120,2013-04-30 00:53:00
8:13 PM,65.7,42.4,43,29.57,10.0,ESE,5.8,-,N/A,,Clear,110,2013-04-30 01:13:00
8:33 PM,65.3,43.0,44,29.56,10.0,East,8.1,-,N/A,,Clear,100,2013-04-30 01:33:00
8:53 PM,64.8,43.5,46,29.56,10.0,East,5.8,-,N/A,,Clear,90,2013-04-30 01:53:00
9:13 PM,63.9,43.9,48,29.56,10.0,East,5.8,-,N/A,,Clear,100,2013-04-30 02:13:00
9:33 PM,63.0,44.2,50,29.56,10.0,East,6.9,-,N/A,,Clear,100,2013-04-30 02:33:00
9:53 PM,63.1,44.6,51,29.55,10.0,East,8.1,-,N/A,,Scattered Clouds,100,2013-04-30 02:53:00
10:33 PM,63.0,45.5,53,29.54,10.0,ESE,8.1,-,N/A,,Scattered Clouds,110,2013-04-30 03:33:00
10:53 PM,62.6,45.7,54,29.52,10.0,ESE,9.2,-,N/A,,Scattered Clouds,110,2013-04-30 03:53:00
11:13 PM,62.6,46.8,56,29.51,10.0,ESE,10.4,-,N/A,,Scattered Clouds,110,2013-04-30 04:13:00
11:33 PM,62.6,47.3,57,29.50,10.0,ESE,4.6,-,N/A,,Clear,120,2013-04-30 04:33:00
11:53 PM,61.9,47.5,59,29.50,10.0,ESE,5.8,-,N/A,,Clear,120,2013-04-30 04:53:00